Time,TemperatureF,DewpointF,PressureIn,WindDirection,WindDirectionDegrees,WindSpeedMPH,WindSpeedGustMPH,Humidity,HourlyPrecipIn,Conditions,Clouds,dailyrainin,SoftwareType,DateUTC
2013-06-14 00:00:00,68.9,68.9,29.88,WNW,292,0.0,0.0,100,0.00,,OVC055,0.25,VWS V14.01,2013-06-14 04:00:00,
2013-06-14 00:01:00,68.9,68.9,29.88,WNW,292,2.2,2.2,100,0.00,,OVC060,0.00,VWS V14.01,2013-06-14 04:01:00,
2013-06-14 00:02:00,68.9,68.9,29.88,WNW,292,0.0,0.0,100,0.00,,OVC060,0.00,VWS V14.01,2013-06-14 04:02:00,
2013-06-14 00:07:00,68.9,68.9,29.88,WNW,292,0.0,0.0,100,0.00,,OVC060,0.00,VWS V14.01,2013-06-14 04:07:00,
2013-06-14 00:12:00,68.7,68.7,29.88,WNW,292,0.0,0.0,100,0.00,,OVC060,0.00,VWS V14.01,2013-06-14 04:12:00,
2013-06-14 00:17:00,68.7,68.7,29.91,WNW,292,0.0,0.0,100,0.00,,OVC060,0.00,VWS V14.01,2013-06-14 04:17:00,
2013-06-14 00:22:00,68.5,68.5,29.91,WNW,292,0.0,2.2,100,0.00,,OVC075,0.00,VWS V14.01,2013-06-14 04:22:00,
2013-06-14 00:27:00,68.7,68.7,29.91,WNW,292,3.6,3.6,100,0.00,,OVC075,0.00,VWS V14.01,2013-06-14 04:27:00,
2013-06-14 00:32:00,69.3,67.8,29.91,WNW,292,2.7,2.7,95,0.00,,OVC075,0.00,VWS V14.01,2013-06-14 04:32:00,
2013-06-14 00:37:00,69.6,64.5,29.91,WNW,292,2.2,2.2,84,0.00,,OVC075,0.00,VWS V14.01,2013-06-14 04:37:00,
2013-06-14 00:42:00,69.6,61.3,29.91,WNW,292,2.7,3.1,75,0.00,,OVC075,0.00,VWS V14.01,2013-06-14 04:42:00,
2013-06-14 00:47:00,70.0,56.0,29.91,WNW,292,2.2,2.2,61,0.00,,OVC075,0.00,VWS V14.01,2013-06-14 04:47:00,
2013-06-14 00:52:00,70.2,53.9,29.91,WNW,292,0.0,4.0,56,0.00,,OVC075,0.00,VWS V14.01,2013-06-14 04:52:00,
2013-06-14 00:57:00,70.2,52.6,29.91,WNW,292,2.2,2.2,54,0.00,,OVC075,0.00,VWS V14.01,2013-06-14 04:57:00,
2013-06-14 01:02:00,70.3,52.2,29.91,WNW,292,0.0,2.7,52,0.00,,OVC065,0.00,VWS V14.01,2013-06-14 05:02:00,
2013-06-14 01:07:00,70.0,52.5,29.91,WNW,292,0.0,2.7,54,0.00,,OVC065,0.00,VWS V14.01,2013-06-14 05:07:00,
2013-06-14 01:12:00,70.0,51.8,29.91,WNW,292,2.2,2.2,52,0.00,,OVC065,0.00,VWS V14.01,2013-06-14 05:12:00,
2013-06-14 01:17:00,70.0,51.2,29.91,WNW,292,0.0,0.0,51,0.00,,OVC065,0.00,VWS V14.01,2013-06-14 05:17:00,
2013-06-14 01:22:00,69.4,52.6,29.91,WNW,292,2.7,2.7,55,0.00,,OVC075,0.00,VWS V14.01,2013-06-14 05:22:00,
2013-06-14 01:27:00,69.3,52.4,29.91,WNW,292,2.2,2.2,55,0.00,,OVC075,0.00,VWS V14.01,2013-06-14 05:27:00,
2013-06-14 01:32:00,68.9,53.3,29.94,WNW,292,0.0,0.0,58,0.00,,OVC075,0.00,VWS V14.01,2013-06-14 05:32:00,
2013-06-14 01:37:00,68.5,53.5,29.94,WNW,292,0.0,0.0,59,0.00,,OVC075,0.00,VWS V14.01,2013-06-14 05:37:00,
2013-06-14 01:42:00,68.2,53.2,29.94,WNW,292,0.0,0.0,59,0.00,,SCT075,0.00,VWS V14.01,2013-06-14 05:42:00,
2013-06-14 01:47:00,67.3,53.5,29.94,WNW,292,2.2,2.2,61,0.00,,SCT075,0.00,VWS V14.01,2013-06-14 05:47:00,
2013-06-14 01:52:00,66.9,54.8,29.94,WNW,292,0.0,0.0,65,0.00,,SCT075,0.00,VWS V14.01,2013-06-14 05:52:00,
2013-06-14 01:57:00,66.6,53.9,29.94,WNW,292,0.0,0.0,64,0.00,,SCT075,0.00,VWS V14.01,2013-06-14 05:57:00,
2013-06-14 02:02:00,66.2,54.6,29.94,WNW,292,0.0,0.0,66,0.00,,CLR,0.00,VWS V14.01,2013-06-14 06:02:00,
2013-06-14 02:07:00,65.8,55.8,29.94,WNW,292,0.0,0.0,70,0.00,,CLR,0.00,VWS V14.01,2013-06-14 06:07:00,
2013-06-14 02:12:00,65.7,56.1,29.94,WNW,292,0.0,0.0,71,0.00,,CLR,0.00,VWS V14.01,2013-06-14 06:12:00,
2013-06-14 02:17:00,65.5,55.9,29.94,WNW,292,0.0,0.0,71,0.00,,CLR,0.00,VWS V14.01,2013-06-14 06:17:00,
2013-06-14 02:22:00,65.3,55.3,29.94,WNW,292,0.0,0.0,70,0.00,,CLR,0.00,VWS V14.01,2013-06-14 06:22:00,
2013-06-14 02:27:00,65.1,56.5,29.94,WNW,292,0.0,0.0,74,0.00,,CLR,0.00,VWS V14.01,2013-06-14 06:27:00,
2013-06-14 02:32:00,64.9,56.8,29.91,WNW,292,0.0,0.0,75,0.00,,CLR,0.00,VWS V14.01,2013-06-14 06:32:00,
2013-06-14 02:37:00,64.8,58.0,29.91,WNW,292,0.0,0.0,79,0.00,,CLR,0.00,VWS V14.01,2013-06-14 06:37:00,
2013-06-14 02:42:00,64.6,57.8,29.91,WNW,292,2.2,2.2,79,0.00,,CLR,0.00,VWS V14.01,2013-06-14 06:42:00,
2013-06-14 02:47:00,64.4,59.0,29.91,WNW,292,0.0,0.0,82,0.00,,CLR,0.00,VWS V14.01,2013-06-14 06:47:00,
2013-06-14 02:52:00,64.4,58.1,29.91,WNW,292,0.0,0.0,80,0.00,,CLR,0.00,VWS V14.01,2013-06-14 06:52:00,
2013-06-14 02:57:00,64.2,58.4,29.91,SSW,202,3.1,3.6,81,0.00,,CLR,0.00,VWS V14.01,2013-06-14 06:57:00,
2013-06-14 03:02:00,64.2,58.8,29.91,SW,225,0.0,0.0,82,0.00,,CLR,0.00,VWS V14.01,2013-06-14 07:02:00,
2013-06-14 03:07:00,63.7,59.9,29.91,SW,225,0.0,0.0,88,0.00,,CLR,0.00,VWS V14.01,2013-06-14 07:07:00,
2013-06-14 03:12:00,63.5,59.3,29.91,SW,225,0.0,0.0,86,0.00,,CLR,0.00,VWS V14.01,2013-06-14 07:12:00,
2013-06-14 03:17:00,63.1,59.8,29.91,SW,225,0.0,0.0,89,0.00,,CLR,0.00,VWS V14.01,2013-06-14 07:17:00,
2013-06-14 03:22:00,63.0,59.2,29.91,SW,225,0.0,0.0,88,0.00,,CLR,0.00,VWS V14.01,2013-06-14 07:22:00,
2013-06-14 03:27:00,62.8,60.2,29.91,SW,225,0.0,0.0,91,0.00,,CLR,0.00,VWS V14.01,2013-06-14 07:27:00,
2013-06-14 03:32:00,62.2,60.4,29.91,SW,225,0.0,2.2,94,0.00,,CLR,0.00,VWS V14.01,2013-06-14 07:32:00,
2013-06-14 03:37:00,61.9,60.8,29.91,SW,225,0.0,0.0,96,0.00,,CLR,0.00,VWS V14.01,2013-06-14 07:37:00,
2013-06-14 03:42:00,61.5,60.8,29.91,SW,225,2.7,2.7,98,0.00,,CLR,0.00,VWS V14.01,2013-06-14 07:42:00,
2013-06-14 03:48:00,61.2,61.2,29.91,SW,225,0.0,0.0,100,0.00,,CLR,0.00,VWS V14.01,2013-06-14 07:48:00,
2013-06-14 03:53:00,60.8,60.8,29.91,SW,225,0.0,0.0,100,0.00,,CLR,0.00,VWS V14.01,2013-06-14 07:53:00,
2013-06-14 03:58:00,60.4,60.4,29.91,SW,225,0.0,0.0,100,0.00,,CLR,0.00,VWS V14.01,2013-06-14 07:58:00,
2013-06-14 04:03:00,60.1,60.1,29.88,SW,225,0.0,0.0,100,0.00,,CLR,0.00,VWS V14.01,2013-06-14 08:03:00,
2013-06-14 04:08:00,60.1,60.1,29.88,SW,225,0.0,0.0,100,0.00,,CLR,0.00,VWS V14.01,2013-06-14 08:08:00,
2013-06-14 04:13:00,59.9,59.9,29.88,SW,225,0.0,0.0,100,0.00,,CLR,0.00,VWS V14.01,2013-06-14 08:13:00,
2013-06-14 04:18:00,59.9,59.9,29.88,SW,225,0.0,0.0,100,0.00,,CLR,0.00,VWS V14.01,2013-06-14 08:18:00,
2013-06-14 04:23:00,60.1,60.1,29.88,SW,225,0.0,0.0,100,0.00,,CLR,0.00,VWS V14.01,2013-06-14 08:23:00,
2013-06-14 04:28:00,60.1,60.1,29.88,SW,225,0.0,0.0,100,0.00,,CLR,0.00,VWS V14.01,2013-06-14 08:28:00,
2013-06-14 04:33:00,60.1,60.1,29.88,SW,225,0.0,0.0,100,0.00,,CLR,0.00,VWS V14.01,2013-06-14 08:33:00,
2013-06-14 04:38:00,60.3,60.3,29.88,SW,225,0.0,0.0,100,0.00,,CLR,0.00,VWS V14.01,2013-06-14 08:38:00,
2013-06-14 04:43:00,60.1,60.1,29.88,SW,225,0.0,0.0,100,0.00,,CLR,0.00,VWS V14.01,2013-06-14 08:43:00,
2013-06-14 04:48:00,61.3,61.3,29.88,SW,225,2.2,2.2,100,0.00,,CLR,0.00,VWS V14.01,2013-06-14 08:48:00,
2013-06-14 04:53:00,61.5,61.5,29.88,SW,225,0.0,0.0,100,0.00,,CLR,0.00,VWS V14.01,2013-06-14 08:53:00,
2013-06-14 04:58:00,61.9,61.9,29.88,SW,225,2.7,2.7,100,0.00,,CLR,0.00,VWS V14.01,2013-06-14 08:58:00,
2013-06-14 05:03:00,62.2,62.2,29.88,SW,225,2.2,2.2,100,0.00,,CLR,0.00,VWS V14.01,2013-06-14 09:03:00,
2013-06-14 05:08:00,62.4,61.0,29.88,SW,225,0.0,2.2,95,0.00,,CLR,0.00,VWS V14.01,2013-06-14 09:08:00,
2013-06-14 05:13:00,62.6,60.0,29.88,SW,225,0.0,0.0,91,0.00,,CLR,0.00,VWS V14.01,2013-06-14 09:13:00,
2013-06-14 05:18:00,62.4,60.2,29.88,SW,225,0.0,0.0,92,0.00,,CLR,0.00,VWS V14.01,2013-06-14 09:18:00,
2013-06-14 05:23:00,62.8,60.2,29.88,SW,225,2.2,2.2,91,0.00,,SCT048,0.00,VWS V14.01,2013-06-14 09:23:00,
2013-06-14 05:28:00,62.6,60.0,29.88,SW,225,0.0,2.7,91,0.00,,SCT048,0.00,VWS V14.01,2013-06-14 09:28:00,
2013-06-14 05:33:00,62.4,59.8,29.88,SW,225,3.1,3.1,91,0.00,,SCT048,0.00,VWS V14.01,2013-06-14 09:33:00,
2013-06-14 05:38:00,62.4,59.8,29.88,SW,225,2.7,2.7,91,0.00,,SCT048,0.00,VWS V14.01,2013-06-14 09:38:00,
2013-06-14 05:43:00,62.2,60.0,29.88,SW,225,2.2,2.7,92,0.00,,SCT048,0.00,VWS V14.01,2013-06-14 09:43:00,
2013-06-14 05:48:00,62.2,59.7,29.91,SW,225,2.2,2.2,91,0.00,,SCT048,0.00,VWS V14.01,2013-06-14 09:48:00,
2013-06-14 05:53:00,62.6,59.6,29.91,SW,225,2.2,2.2,90,0.00,,SCT048,0.00,VWS V14.01,2013-06-14 09:53:00,
2013-06-14 05:58:00,62.2,59.7,29.91,SW,225,0.0,2.2,91,0.00,,SCT048,0.00,VWS V14.01,2013-06-14 09:58:00,
2013-06-14 06:03:00,61.9,60.8,29.91,SW,225,0.0,0.0,96,0.00,,SCT048,0.00,VWS V14.01,2013-06-14 10:03:00,
2013-06-14 06:08:00,61.9,60.4,29.91,SW,225,2.2,2.2,95,0.00,,SCT048,0.00,VWS V14.01,2013-06-14 10:08:00,
2013-06-14 06:13:00,61.9,60.1,29.91,SW,225,0.0,2.2,94,0.00,,SCT048,0.00,VWS V14.01,2013-06-14 10:13:00,
2013-06-14 06:18:00,61.7,60.3,29.91,SW,225,2.7,2.7,95,0.00,,SCT048,0.00,VWS V14.01,2013-06-14 10:18:00,
2013-06-14 06:23:00,61.7,60.6,29.91,SW,225,0.0,0.0,96,0.00,,CLR,0.00,VWS V14.01,2013-06-14 10:23:00,
2013-06-14 06:28:00,61.3,61.0,29.91,SW,225,2.2,2.2,99,0.00,,CLR,0.00,VWS V14.01,2013-06-14 10:28:00,
2013-06-14 06:33:00,61.5,60.8,29.91,SW,225,2.2,2.2,98,0.00,,CLR,0.00,VWS V14.01,2013-06-14 10:33:00,
2013-06-14 06:38:00,61.7,60.6,29.91,SW,225,2.2,2.2,96,0.00,,CLR,0.00,VWS V14.01,2013-06-14 10:38:00,
2013-06-14 06:43:00,61.7,60.6,29.91,SW,225,0.0,0.0,96,0.00,,CLR,0.00,VWS V14.01,2013-06-14 10:43:00,
2013-06-14 06:48:00,61.7,60.6,29.91,SW,225,2.2,2.7,96,0.00,,CLR,0.00,VWS V14.01,2013-06-14 10:48:00,
2013-06-14 06:53:00,62.2,60.8,29.91,SW,225,3.1,3.1,95,0.00,,CLR,0.00,VWS V14.01,2013-06-14 10:53:00,
2013-06-14 06:58:00,62.4,60.2,29.91,SW,225,2.7,3.1,92,0.00,,CLR,0.00,VWS V14.01,2013-06-14 10:58:00,
2013-06-14 07:03:00,62.4,60.6,29.91,SW,225,2.7,2.7,94,0.00,,CLR,0.00,VWS V14.01,2013-06-14 11:03:00,
2013-06-14 07:08:00,62.6,60.4,29.91,SW,225,0.0,0.0,92,0.00,,CLR,0.00,VWS V14.01,2013-06-14 11:08:00,
2013-06-14 07:13:00,62.4,61.7,29.91,SW,225,0.0,0.0,98,0.00,,CLR,0.00,VWS V14.01,2013-06-14 11:13:00,
2013-06-14 07:18:00,62.2,62.2,29.94,SW,225,0.0,0.0,100,0.00,,CLR,0.00,VWS V14.01,2013-06-14 11:18:00,
2013-06-14 07:23:00,62.2,62.2,29.94,SW,225,0.0,0.0,100,0.00,,CLR,0.00,VWS V14.01,2013-06-14 11:23:00,
2013-06-14 07:28:00,62.2,62.2,29.94,SW,225,0.0,0.0,100,0.00,,CLR,0.00,VWS V14.01,2013-06-14 11:28:00,
2013-06-14 07:33:00,62.4,62.4,29.94,SW,225,0.0,2.2,100,0.00,,CLR,0.00,VWS V14.01,2013-06-14 11:33:00,
2013-06-14 07:38:00,62.4,62.4,29.94,SW,225,2.2,2.2,100,0.00,,CLR,0.00,VWS V14.01,2013-06-14 11:38:00,
2013-06-14 07:43:00,62.6,62.6,29.94,SW,225,0.0,0.0,100,0.00,,CLR,0.00,VWS V14.01,2013-06-14 11:43:00,
2013-06-14 07:48:00,63.0,63.0,29.94,SW,225,0.0,2.2,100,0.00,,CLR,0.00,VWS V14.01,2013-06-14 11:48:00,
2013-06-14 07:53:00,63.3,63.3,29.94,SW,225,2.2,2.2,100,0.00,,CLR,0.00,VWS V14.01,2013-06-14 11:53:00,
2013-06-14 07:58:00,63.9,63.9,29.94,SW,225,0.0,0.0,100,0.00,,CLR,0.00,VWS V14.01,2013-06-14 11:58:00,
2013-06-14 08:03:00,64.4,64.4,29.94,SW,225,3.1,3.1,100,0.00,,CLR,0.00,VWS V14.01,2013-06-14 12:03:00,
2013-06-14 08:08:00,64.8,64.4,29.94,SW,225,2.2,2.7,99,0.00,,CLR,0.00,VWS V14.01,2013-06-14 12:08:00,
2013-06-14 08:13:00,65.3,63.8,29.94,SW,225,2.7,2.7,95,0.00,,CLR,0.00,VWS V14.01,2013-06-14 12:13:00,
2013-06-14 08:18:00,65.7,63.0,29.94,SW,225,0.0,4.0,91,0.00,,CLR,0.00,VWS V14.01,2013-06-14 12:18:00,
2013-06-14 08:23:00,66.2,63.2,29.94,SW,225,3.1,4.0,90,0.00,,CLR,0.00,VWS V14.01,2013-06-14 12:23:00,
2013-06-14 08:28:00,66.6,62.3,29.94,WSW,248,2.7,2.7,86,0.00,,CLR,0.00,VWS V14.01,2013-06-14 12:28:00,
2013-06-14 08:33:00,66.9,61.4,29.94,West,270,2.7,3.1,82,0.00,,CLR,0.00,VWS V14.01,2013-06-14 12:33:00,
2013-06-14 08:38:00,67.3,61.3,29.94,West,270,0.0,2.7,81,0.00,,CLR,0.00,VWS V14.01,2013-06-14 12:38:00,
2013-06-14 08:43:00,67.6,60.8,29.94,West,270,2.2,3.1,79,0.00,,CLR,0.00,VWS V14.01,2013-06-14 12:43:00,
2013-06-14 08:48:00,68.2,59.0,29.94,West,270,2.2,2.7,72,0.00,,CLR,0.00,VWS V14.01,2013-06-14 12:48:00,
2013-06-14 08:53:00,68.7,60.0,29.94,West,270,3.1,3.1,74,0.00,,CLR,0.00,VWS V14.01,2013-06-14 12:53:00,
2013-06-14 08:58:00,68.9,61.1,29.94,West,270,3.1,3.1,76,0.00,,CLR,0.00,VWS V14.01,2013-06-14 12:58:00,
2013-06-14 09:03:00,69.3,60.5,29.94,West,270,2.7,2.7,74,0.00,,CLR,0.00,VWS V14.01,2013-06-14 13:03:00,
2013-06-14 09:08:00,69.6,59.4,29.94,West,270,2.7,4.0,70,0.00,,CLR,0.00,VWS V14.01,2013-06-14 13:08:00,
2013-06-14 09:13:00,70.0,57.7,29.94,West,270,4.0,4.0,65,0.00,,CLR,0.00,VWS V14.01,2013-06-14 13:13:00,
2013-06-14 09:18:00,70.0,57.2,29.97,West,270,4.0,4.0,64,0.00,,CLR,0.00,VWS V14.01,2013-06-14 13:18:00,
2013-06-14 09:23:00,70.3,55.8,29.97,West,270,3.1,4.5,60,0.00,,CLR,0.00,VWS V14.01,2013-06-14 13:23:00,
2013-06-14 09:28:00,70.5,56.5,29.97,West,270,3.1,3.1,61,0.00,,CLR,0.00,VWS V14.01,2013-06-14 13:28:00,
2013-06-14 09:33:00,70.7,57.3,29.97,West,270,3.6,3.6,62,0.00,,CLR,0.00,VWS V14.01,2013-06-14 13:33:00,
2013-06-14 09:38:00,70.9,55.2,29.97,West,270,2.7,3.1,58,0.00,,CLR,0.00,VWS V14.01,2013-06-14 13:38:00,
2013-06-14 09:44:00,71.1,56.5,29.97,West,270,2.7,2.7,60,0.00,,CLR,0.00,VWS V14.01,2013-06-14 13:44:00,
2013-06-14 09:49:00,71.2,55.5,29.97,West,270,4.0,4.0,58,0.00,,CLR,0.00,VWS V14.01,2013-06-14 13:49:00,
2013-06-14 09:54:00,71.4,55.7,29.97,West,270,0.0,2.7,58,0.00,,CLR,0.00,VWS V14.01,2013-06-14 13:54:00,
2013-06-14 09:59:00,71.8,54.8,29.97,West,270,3.6,3.6,55,0.00,,CLR,0.00,VWS V14.01,2013-06-14 13:59:00,
2013-06-14 10:04:00,72.1,55.1,29.97,West,270,2.7,3.1,55,0.00,,CLR,0.00,VWS V14.01,2013-06-14 14:04:00,
2013-06-14 10:09:00,72.5,56.0,29.97,West,270,2.7,3.6,56,0.00,,CLR,0.00,VWS V14.01,2013-06-14 14:09:00,
2013-06-14 10:14:00,72.5,55.4,29.97,WNW,292,4.0,4.0,55,0.00,,CLR,0.00,VWS V14.01,2013-06-14 14:14:00,
2013-06-14 10:19:00,72.5,55.4,29.97,NNW,338,5.4,5.4,55,0.00,,CLR,0.00,VWS V14.01,2013-06-14 14:19:00,
2013-06-14 10:24:00,72.7,54.3,29.97,NNW,338,3.6,3.6,52,0.00,,CLR,0.00,VWS V14.01,2013-06-14 14:24:00,
2013-06-14 10:29:00,72.9,55.1,29.97,NNW,338,3.6,4.0,54,0.00,,CLR,0.00,VWS V14.01,2013-06-14 14:29:00,
2013-06-14 10:34:00,73.0,54.0,29.97,NNW,338,3.1,3.1,51,0.00,,CLR,0.00,VWS V14.01,2013-06-14 14:34:00,
2013-06-14 10:39:00,73.4,55.6,29.97,NNW,338,0.0,4.0,54,0.00,,CLR,0.00,VWS V14.01,2013-06-14 14:39:00,
2013-06-14 10:44:00,73.8,52.6,29.97,North,0,3.6,5.4,48,0.00,,CLR,0.00,VWS V14.01,2013-06-14 14:44:00,
2013-06-14 10:49:00,74.3,55.8,29.97,North,0,2.7,3.6,52,0.00,,CLR,0.00,VWS V14.01,2013-06-14 14:49:00,
2013-06-14 10:54:00,74.5,52.5,29.97,North,0,2.7,3.1,46,0.00,,CLR,0.00,VWS V14.01,2013-06-14 14:54:00,
2013-06-14 10:59:00,75.2,53.2,29.97,North,0,0.0,2.2,46,0.00,,CLR,0.00,VWS V14.01,2013-06-14 14:59:00,
2013-06-14 11:04:00,76.1,52.5,29.97,North,0,3.1,3.1,44,0.00,,CLR,0.00,VWS V14.01,2013-06-14 15:04:00,
2013-06-14 11:09:00,76.6,54.5,29.97,NW,315,4.9,5.4,46,0.00,,CLR,0.00,VWS V14.01,2013-06-14 15:09:00,
2013-06-14 11:14:00,77.0,52.5,29.97,NW,315,2.2,3.1,42,0.00,,CLR,0.00,VWS V14.01,2013-06-14 15:14:00,
2013-06-14 11:19:00,77.5,53.8,29.97,NNW,338,3.1,4.9,44,0.00,,CLR,0.00,VWS V14.01,2013-06-14 15:19:00,
2013-06-14 11:24:00,77.7,51.5,29.97,WSW,248,3.1,3.1,40,0.00,,CLR,0.00,VWS V14.01,2013-06-14 15:24:00,
2013-06-14 11:29:00,77.7,53.2,29.97,WSW,248,5.4,5.4,42,0.00,,CLR,0.00,VWS V14.01,2013-06-14 15:29:00,
2013-06-14 11:34:00,78.1,52.7,30.00,WSW,248,2.2,2.2,41,0.00,,CLR,0.00,VWS V14.01,2013-06-14 15:34:00,
2013-06-14 11:39:00,78.6,53.1,30.00,WSW,248,4.0,4.0,41,0.00,,CLR,0.00,VWS V14.01,2013-06-14 15:39:00,
2013-06-14 11:44:00,78.3,51.1,30.00,WNW,292,3.6,3.6,39,0.00,,CLR,0.00,VWS V14.01,2013-06-14 15:44:00,
2013-06-14 11:49:00,78.8,52.5,29.97,WNW,292,2.7,2.7,40,0.00,,CLR,0.00,VWS V14.01,2013-06-14 15:49:00,
2013-06-14 11:54:00,79.0,51.8,29.97,WNW,292,2.7,3.1,39,0.00,,CLR,0.00,VWS V14.01,2013-06-14 15:54:00,
2013-06-14 11:59:00,79.3,51.2,29.97,WNW,292,2.7,2.7,38,0.00,,CLR,0.00,VWS V14.01,2013-06-14 15:59:00,
2013-06-14 12:04:00,79.5,51.4,29.97,WNW,292,2.7,2.7,38,0.00,,CLR,0.00,VWS V14.01,2013-06-14 16:04:00,
2013-06-14 12:09:00,79.5,51.4,29.97,WNW,292,0.0,3.1,38,0.00,,CLR,0.00,VWS V14.01,2013-06-14 16:09:00,
2013-06-14 12:14:00,79.9,51.7,29.97,WNW,292,3.6,3.6,38,0.00,,CLR,0.00,VWS V14.01,2013-06-14 16:14:00,
2013-06-14 12:19:00,80.2,54.6,29.97,WNW,292,4.0,4.0,41,0.00,,CLR,0.00,VWS V14.01,2013-06-14 16:19:00,
2013-06-14 12:24:00,80.2,50.1,29.97,West,270,2.7,2.7,35,0.00,,SCT060,0.00,VWS V14.01,2013-06-14 16:24:00,
2013-06-14 12:29:00,80.6,52.3,29.97,West,270,2.7,3.6,38,0.00,,SCT060,0.00,VWS V14.01,2013-06-14 16:29:00,
2013-06-14 12:34:00,80.8,51.5,29.97,West,270,2.7,2.7,36,0.00,,SCT060,0.00,VWS V14.01,2013-06-14 16:34:00,
2013-06-14 12:39:00,80.6,51.4,29.97,WNW,292,2.2,3.6,36,0.00,,SCT060,0.00,VWS V14.01,2013-06-14 16:39:00,
2013-06-14 12:44:00,80.6,51.4,29.97,WNW,292,2.7,3.1,36,0.00,,SCT060,0.00,VWS V14.01,2013-06-14 16:44:00,
2013-06-14 12:49:00,79.9,50.8,29.97,WNW,292,4.0,4.0,36,0.00,,SCT060,0.00,VWS V14.01,2013-06-14 16:49:00,
2013-06-14 12:54:00,81.0,52.6,29.97,WNW,292,2.7,3.6,38,0.00,,SCT060,0.00,VWS V14.01,2013-06-14 16:54:00,
2013-06-14 12:59:00,81.0,51.7,29.97,WNW,292,4.5,4.5,36,0.00,,SCT060,0.00,VWS V14.01,2013-06-14 16:59:00,
2013-06-14 13:04:00,81.0,49.8,29.97,NNW,338,3.6,3.6,34,0.00,,SCT060,0.00,VWS V14.01,2013-06-14 17:04:00,
2013-06-14 13:09:00,80.6,52.3,29.97,WNW,292,2.2,2.2,38,0.00,,SCT060,0.00,VWS V14.01,2013-06-14 17:09:00,
2013-06-14 13:14:00,81.9,53.4,29.97,WNW,292,3.1,3.1,38,0.00,,SCT060,0.00,VWS V14.01,2013-06-14 17:14:00,
2013-06-14 13:19:00,82.4,49.0,29.97,WNW,292,4.0,4.0,31,0.00,,SCT060,0.00,VWS V14.01,2013-06-14 17:19:00,
2013-06-14 13:24:00,82.2,52.8,29.97,WNW,292,2.7,3.1,36,0.00,,CLR,0.00,VWS V14.01,2013-06-14 17:24:00,
2013-06-14 13:29:00,82.2,49.9,29.97,WNW,292,2.7,2.7,32,0.00,,CLR,0.00,VWS V14.01,2013-06-14 17:29:00,
2013-06-14 13:34:00,81.5,51.2,30.00,WNW,292,4.9,4.9,35,0.00,,CLR,0.00,VWS V14.01,2013-06-14 17:34:00,
2013-06-14 13:39:00,82.6,51.2,30.00,WNW,292,3.6,3.6,34,0.00,,CLR,0.00,VWS V14.01,2013-06-14 17:39:00,
2013-06-14 13:44:00,82.6,53.1,30.00,WNW,292,3.6,3.6,36,0.00,,CLR,0.00,VWS V14.01,2013-06-14 17:44:00,
2013-06-14 13:49:00,83.1,49.6,29.97,WNW,292,2.2,3.1,31,0.00,,CLR,0.00,VWS V14.01,2013-06-14 17:49:00,
2013-06-14 13:54:00,82.8,48.2,29.97,WSW,248,3.6,3.6,30,0.00,,CLR,0.00,VWS V14.01,2013-06-14 17:54:00,
2013-06-14 13:59:00,82.4,49.0,29.97,West,270,3.1,3.1,31,0.00,,CLR,0.00,VWS V14.01,2013-06-14 17:59:00,
2013-06-14 14:04:00,82.9,46.0,29.97,West,270,3.1,3.1,28,0.00,,CLR,0.00,VWS V14.01,2013-06-14 18:04:00,
2013-06-14 14:09:00,82.9,49.4,29.97,West,270,2.7,2.7,31,0.00,,CLR,0.00,VWS V14.01,2013-06-14 18:09:00,
2013-06-14 14:14:00,82.6,49.1,29.97,WSW,248,5.4,5.4,31,0.00,,CLR,0.00,VWS V14.01,2013-06-14 18:14:00,
2013-06-14 14:19:00,82.4,50.0,29.97,WSW,248,2.7,2.7,32,0.00,,CLR,0.00,VWS V14.01,2013-06-14 18:19:00,
2013-06-14 14:24:00,83.5,48.8,29.97,WSW,248,2.7,3.6,30,0.00,,CLR,0.00,VWS V14.01,2013-06-14 18:24:00,
2013-06-14 14:29:00,83.7,46.7,29.97,WNW,292,3.1,3.1,28,0.00,,CLR,0.00,VWS V14.01,2013-06-14 18:29:00,
2013-06-14 14:34:00,82.9,46.0,29.97,WNW,292,2.2,3.6,28,0.00,,CLR,0.00,VWS V14.01,2013-06-14 18:34:00,
2013-06-14 14:39:00,83.5,46.5,29.97,WNW,292,3.1,3.1,28,0.00,,CLR,0.00,VWS V14.01,2013-06-14 18:39:00,
2013-06-14 14:44:00,81.9,45.1,29.97,WNW,292,2.7,3.6,28,0.00,,CLR,0.00,VWS V14.01,2013-06-14 18:44:00,
2013-06-14 14:49:00,82.0,44.0,29.97,WNW,292,2.7,3.6,26,0.00,,CLR,0.00,VWS V14.01,2013-06-14 18:49:00,
2013-06-14 14:54:00,82.2,45.4,29.97,NNW,338,5.4,5.4,28,0.00,,CLR,0.00,VWS V14.01,2013-06-14 18:54:00,
2013-06-14 14:59:00,82.6,45.7,29.97,NNW,338,2.7,3.1,28,0.00,,CLR,0.00,VWS V14.01,2013-06-14 18:59:00,
2013-06-14 15:04:00,82.2,44.2,29.97,NNW,338,3.1,3.1,26,0.00,,CLR,0.00,VWS V14.01,2013-06-14 19:04:00,
2013-06-14 15:09:00,82.2,45.4,29.97,NNW,338,3.6,3.6,28,0.00,,CLR,0.00,VWS V14.01,2013-06-14 19:09:00,
2013-06-14 15:14:00,82.2,45.4,29.97,NNW,338,3.1,3.1,28,0.00,,CLR,0.00,VWS V14.01,2013-06-14 19:14:00,
2013-06-14 15:19:00,81.1,49.9,29.97,NNW,338,4.9,4.9,34,0.00,,CLR,0.00,VWS V14.01,2013-06-14 19:19:00,
2013-06-14 15:24:00,80.6,46.3,29.97,NNW,338,4.0,4.0,30,0.00,,CLR,0.00,VWS V14.01,2013-06-14 19:24:00,
2013-06-14 15:29:00,80.6,46.3,29.97,NNW,338,0.0,2.2,30,0.00,,CLR,0.00,VWS V14.01,2013-06-14 19:29:00,
2013-06-14 15:34:00,80.6,45.2,29.97,NNW,338,2.7,3.6,29,0.00,,CLR,0.00,VWS V14.01,2013-06-14 19:34:00,
2013-06-14 15:39:00,80.6,45.2,29.97,NNW,338,0.0,2.7,29,0.00,,CLR,0.00,VWS V14.01,2013-06-14 19:39:00,
2013-06-14 15:44:00,80.6,45.2,29.97,NNW,338,0.0,0.0,29,0.00,,CLR,0.00,VWS V14.01,2013-06-14 19:44:00,
2013-06-14 15:49:00,81.0,48.8,29.97,North,0,3.6,3.6,32,0.00,,CLR,0.00,VWS V14.01,2013-06-14 19:49:00,
2013-06-14 15:54:00,80.4,47.3,29.97,NNE,22,2.2,3.6,31,0.00,,CLR,0.00,VWS V14.01,2013-06-14 19:54:00,
2013-06-14 15:59:00,80.4,46.2,29.97,NNE,22,0.0,2.7,30,0.00,,CLR,0.00,VWS V14.01,2013-06-14 19:59:00,
2013-06-14 16:04:00,80.6,47.4,29.97,NNE,22,2.2,3.6,31,0.00,,CLR,0.00,VWS V14.01,2013-06-14 20:04:00,
2013-06-14 16:09:00,80.8,51.5,29.97,NNE,22,2.7,3.1,36,0.00,,CLR,0.00,VWS V14.01,2013-06-14 20:09:00,
2013-06-14 16:14:00,80.8,46.5,29.97,NNE,22,3.1,3.1,30,0.00,,CLR,0.00,VWS V14.01,2013-06-14 20:14:00,
2013-06-14 16:19:00,80.6,45.2,29.97,ENE,68,2.2,2.2,29,0.00,,CLR,0.00,VWS V14.01,2013-06-14 20:19:00,
2013-06-14 16:24:00,80.6,49.5,29.97,SW,225,2.7,2.7,34,0.00,,CLR,0.00,VWS V14.01,2013-06-14 20:24:00,
2013-06-14 16:29:00,80.2,44.9,29.97,SW,225,2.7,3.1,29,0.00,,CLR,0.00,VWS V14.01,2013-06-14 20:29:00,
2013-06-14 16:34:00,80.1,45.9,29.97,SW,225,3.6,3.6,30,0.00,,CLR,0.00,VWS V14.01,2013-06-14 20:34:00,
2013-06-14 16:39:00,80.1,45.9,29.97,NNW,338,3.1,3.6,30,0.00,,CLR,0.00,VWS V14.01,2013-06-14 20:39:00,
2013-06-14 16:44:00,80.1,45.9,29.97,NNW,338,3.1,3.1,30,0.00,,CLR,0.00,VWS V14.01,2013-06-14 20:44:00,
2013-06-14 16:49:00,79.7,46.6,29.97,WNW,292,0.0,2.7,31,0.00,,CLR,0.00,VWS V14.01,2013-06-14 20:49:00,
2013-06-14 16:54:00,80.1,49.0,29.97,WNW,292,2.2,2.2,34,0.00,,CLR,0.00,VWS V14.01,2013-06-14 20:54:00,
2013-06-14 16:59:00,79.9,44.6,29.97,SW,225,2.2,2.7,29,0.00,,CLR,0.00,VWS V14.01,2013-06-14 20:59:00,
2013-06-14 17:04:00,79.9,44.6,29.97,SW,225,0.0,3.6,29,0.00,,CLR,0.00,VWS V14.01,2013-06-14 21:04:00,
2013-06-14 17:09:00,80.2,46.0,29.97,SW,225,2.2,2.7,30,0.00,,CLR,0.00,VWS V14.01,2013-06-14 21:09:00,
2013-06-14 17:14:00,80.4,45.1,29.97,ENE,68,0.0,3.1,29,0.00,,CLR,0.00,VWS V14.01,2013-06-14 21:14:00,
2013-06-14 17:19:00,80.6,45.2,29.97,ENE,68,0.0,2.2,29,0.00,,CLR,0.00,VWS V14.01,2013-06-14 21:19:00,
2013-06-14 17:24:00,80.2,47.1,29.97,ENE,68,2.2,2.7,31,0.00,,CLR,0.00,VWS V14.01,2013-06-14 21:24:00,
2013-06-14 17:29:00,80.1,47.0,29.97,ENE,68,2.7,3.1,31,0.00,,CLR,0.00,VWS V14.01,2013-06-14 21:29:00,
2013-06-14 17:34:00,79.9,45.7,29.97,ENE,68,0.0,2.7,30,0.00,,CLR,0.00,VWS V14.01,2013-06-14 21:34:00,
2013-06-14 17:40:00,80.2,47.1,29.97,ENE,68,0.0,2.2,31,0.00,,CLR,0.00,VWS V14.01,2013-06-14 21:40:00,
2013-06-14 17:45:00,80.2,47.1,29.97,ENE,68,0.0,3.1,31,0.00,,CLR,0.00,VWS V14.01,2013-06-14 21:45:00,
2013-06-14 17:50:00,80.1,44.8,29.97,ENE,68,2.7,2.7,29,0.00,,CLR,0.00,VWS V14.01,2013-06-14 21:50:00,
2013-06-14 17:55:00,80.1,45.9,29.97,ENE,68,2.2,2.2,30,0.00,,CLR,0.00,VWS V14.01,2013-06-14 21:55:00,
2013-06-14 18:00:00,79.9,44.6,29.97,ENE,68,0.0,2.7,29,0.00,,CLR,0.00,VWS V14.01,2013-06-14 22:00:00,
2013-06-14 18:05:00,79.7,46.6,29.97,ENE,68,2.7,3.1,31,0.00,,CLR,0.00,VWS V14.01,2013-06-14 22:05:00,
2013-06-14 18:10:00,79.2,44.0,29.97,ENE,68,2.7,3.1,29,0.00,,CLR,0.00,VWS V14.01,2013-06-14 22:10:00,
2013-06-14 18:15:00,78.8,43.7,29.97,ENE,68,2.7,2.7,29,0.00,,CLR,0.00,VWS V14.01,2013-06-14 22:15:00,
2013-06-14 18:20:00,78.4,44.5,30.00,ENE,68,0.0,0.0,30,0.00,,CLR,0.00,VWS V14.01,2013-06-14 22:20:00,
2013-06-14 18:25:00,78.4,44.5,30.00,ENE,68,2.2,2.2,30,0.00,,CLR,0.00,VWS V14.01,2013-06-14 22:25:00,
2013-06-14 18:30:00,78.3,44.3,30.00,ENE,68,3.1,3.6,30,0.00,,CLR,0.00,VWS V14.01,2013-06-14 22:30:00,
2013-06-14 18:35:00,78.3,44.3,30.00,ENE,68,0.0,2.2,30,0.00,,CLR,0.00,VWS V14.01,2013-06-14 22:35:00,
2013-06-14 18:40:00,78.1,45.2,30.00,ENE,68,0.0,0.0,31,0.00,,CLR,0.00,VWS V14.01,2013-06-14 22:40:00,
2013-06-14 18:45:00,78.1,45.2,30.00,ENE,68,0.0,0.0,31,0.00,,CLR,0.00,VWS V14.01,2013-06-14 22:45:00,
2013-06-14 18:50:00,78.1,45.2,30.00,ENE,68,0.0,0.0,31,0.00,,CLR,0.00,VWS V14.01,2013-06-14 22:50:00,
2013-06-14 18:55:00,78.1,46.3,30.00,ENE,68,2.2,2.2,32,0.00,,CLR,0.00,VWS V14.01,2013-06-14 22:55:00,
2013-06-14 19:00:00,78.1,46.3,30.00,ENE,68,0.0,0.0,32,0.00,,CLR,0.00,VWS V14.01,2013-06-14 23:00:00,
2013-06-14 19:05:00,78.4,48.5,30.00,ENE,68,2.7,3.1,35,0.00,,CLR,0.00,VWS V14.01,2013-06-14 23:05:00,
2013-06-14 19:10:00,78.4,48.5,30.00,ENE,68,0.0,0.0,35,0.00,,CLR,0.00,VWS V14.01,2013-06-14 23:10:00,
2013-06-14 19:15:00,78.6,48.7,30.00,ENE,68,0.0,0.0,35,0.00,,CLR,0.00,VWS V14.01,2013-06-14 23:15:00,
2013-06-14 19:20:00,79.3,48.4,30.03,ENE,68,0.0,0.0,34,0.00,,CLR,0.00,VWS V14.01,2013-06-14 23:20:00,
2013-06-14 19:25:00,79.2,49.2,30.03,ENE,68,0.0,2.2,35,0.00,,CLR,0.00,VWS V14.01,2013-06-14 23:25:00,
2013-06-14 19:30:00,78.4,50.4,30.03,ENE,68,0.0,0.0,38,0.00,,CLR,0.00,VWS V14.01,2013-06-14 23:30:00,
2013-06-14 19:35:00,77.4,51.2,30.00,ENE,68,0.0,0.0,40,0.00,,CLR,0.00,VWS V14.01,2013-06-14 23:35:00,
2013-06-14 19:40:00,76.3,50.2,30.00,ENE,68,0.0,0.0,40,0.00,,CLR,0.00,VWS V14.01,2013-06-14 23:40:00,
2013-06-14 19:45:00,75.6,50.4,30.00,ENE,68,0.0,0.0,41,0.00,,CLR,0.00,VWS V14.01,2013-06-14 23:45:00,
2013-06-14 19:50:00,74.7,51.9,30.03,ENE,68,0.0,0.0,45,0.00,,CLR,0.00,VWS V14.01,2013-06-14 23:50:00,
2013-06-14 19:55:00,73.8,51.9,30.03,ENE,68,0.0,0.0,46,0.00,,CLR,0.00,VWS V14.01,2013-06-14 23:55:00,
2013-06-14 20:00:00,73.2,53.5,30.03,ENE,68,0.0,0.0,50,0.00,,CLR,0.00,VWS V14.01,2013-06-15 00:00:00,
2013-06-14 20:05:00,72.9,53.8,30.03,ENE,68,0.0,0.0,51,0.00,,CLR,0.00,VWS V14.01,2013-06-15 00:05:00,
2013-06-14 20:11:00,72.3,54.0,30.03,ENE,68,0.0,0.0,52,0.00,,CLR,0.00,VWS V14.01,2013-06-15 00:11:00,
2013-06-14 20:16:00,72.0,53.0,30.03,ENE,68,0.0,0.0,51,0.00,,CLR,0.00,VWS V14.01,2013-06-15 00:16:00,
2013-06-14 20:21:00,71.4,53.2,30.03,ENE,68,0.0,0.0,52,0.00,,CLR,0.00,VWS V14.01,2013-06-15 00:21:00,
2013-06-14 20:26:00,71.1,53.5,30.03,ENE,68,0.0,0.0,54,0.00,,CLR,0.00,VWS V14.01,2013-06-15 00:26:00,
2013-06-14 20:31:00,70.7,55.0,30.03,ENE,68,0.0,0.0,58,0.00,,CLR,0.00,VWS V14.01,2013-06-15 00:31:00,
2013-06-14 20:36:00,70.3,53.4,30.03,ENE,68,0.0,0.0,55,0.00,,CLR,0.00,VWS V14.01,2013-06-15 00:36:00,
2013-06-14 20:41:00,69.8,53.5,30.03,ENE,68,0.0,0.0,56,0.00,,CLR,0.00,VWS V14.01,2013-06-15 00:41:00,
2013-06-14 20:46:00,69.4,53.2,30.03,ENE,68,0.0,0.0,56,0.00,,CLR,0.00,VWS V14.01,2013-06-15 00:46:00,
2013-06-14 20:51:00,69.1,53.5,30.03,ENE,68,0.0,0.0,58,0.00,,CLR,0.00,VWS V14.01,2013-06-15 00:51:00,
2013-06-14 20:56:00,68.7,53.7,30.03,ENE,68,0.0,0.0,59,0.00,,CLR,0.00,VWS V14.01,2013-06-15 00:56:00,
2013-06-14 21:01:00,68.4,55.6,30.03,ENE,68,0.0,0.0,64,0.00,,CLR,0.00,VWS V14.01,2013-06-15 01:01:00,
2013-06-14 21:06:00,68.0,55.8,30.03,ENE,68,0.0,0.0,65,0.00,,CLR,0.00,VWS V14.01,2013-06-15 01:06:00,
2013-06-14 21:11:00,67.6,55.5,30.03,ENE,68,0.0,0.0,65,0.00,,CLR,0.00,VWS V14.01,2013-06-15 01:11:00,
2013-06-14 21:16:00,67.3,55.7,30.03,ENE,68,0.0,0.0,66,0.00,,CLR,0.00,VWS V14.01,2013-06-15 01:16:00,
2013-06-14 21:21:00,66.9,56.3,30.03,ENE,68,0.0,0.0,69,0.00,,CLR,0.00,VWS V14.01,2013-06-15 01:21:00,
2013-06-14 21:26:00,66.9,57.3,30.03,ENE,68,0.0,0.0,71,0.00,,CLR,0.00,VWS V14.01,2013-06-15 01:26:00,
2013-06-14 21:31:00,66.6,57.9,30.03,ENE,68,0.0,0.0,74,0.00,,CLR,0.00,VWS V14.01,2013-06-15 01:31:00,
2013-06-14 21:36:00,66.2,57.6,30.03,ENE,68,0.0,0.0,74,0.00,,CLR,0.00,VWS V14.01,2013-06-15 01:36:00,
2013-06-14 21:41:00,66.0,56.9,30.03,ENE,68,0.0,0.0,72,0.00,,CLR,0.00,VWS V14.01,2013-06-15 01:41:00,
2013-06-14 21:46:00,65.8,56.3,30.03,ENE,68,0.0,0.0,71,0.00,,CLR,0.00,VWS V14.01,2013-06-15 01:46:00,
2013-06-14 21:51:00,65.7,57.5,30.06,ENE,68,0.0,0.0,75,0.00,,CLR,0.00,VWS V14.01,2013-06-15 01:51:00,
2013-06-14 21:56:00,65.5,57.8,30.06,ENE,68,0.0,0.0,76,0.00,,CLR,0.00,VWS V14.01,2013-06-15 01:56:00,
2013-06-14 22:01:00,65.3,58.1,30.06,ENE,68,0.0,0.0,78,0.00,,CLR,0.00,VWS V14.01,2013-06-15 02:01:00,
2013-06-14 22:06:00,65.1,58.4,30.06,ENE,68,0.0,0.0,79,0.00,,CLR,0.00,VWS V14.01,2013-06-15 02:06:00,
2013-06-14 22:11:00,64.9,59.1,30.06,ENE,68,0.0,0.0,81,0.00,,CLR,0.00,VWS V14.01,2013-06-15 02:11:00,
2013-06-14 22:16:00,64.8,58.9,30.06,ENE,68,0.0,0.0,81,0.00,,CLR,0.00,VWS V14.01,2013-06-15 02:16:00,
2013-06-14 22:21:00,64.6,59.6,30.06,ENE,68,0.0,0.0,84,0.00,,CLR,0.00,VWS V14.01,2013-06-15 02:21:00,
2013-06-14 22:26:00,64.6,60.0,30.06,ENE,68,0.0,0.0,85,0.00,,CLR,0.00,VWS V14.01,2013-06-15 02:26:00,
2013-06-14 22:31:00,64.2,60.0,30.06,ENE,68,0.0,0.0,86,0.00,,CLR,0.00,VWS V14.01,2013-06-15 02:31:00,
2013-06-14 22:36:00,64.0,59.5,30.06,ENE,68,0.0,0.0,85,0.00,,CLR,0.00,VWS V14.01,2013-06-15 02:36:00,
2013-06-14 22:41:00,63.9,59.3,30.06,ENE,68,0.0,0.0,85,0.00,,CLR,0.00,VWS V14.01,2013-06-15 02:41:00,
2013-06-14 22:46:00,64.6,59.1,30.06,ENE,68,0.0,0.0,82,0.00,,CLR,0.00,VWS V14.01,2013-06-15 02:46:00,
2013-06-14 22:51:00,64.8,58.9,30.09,ENE,68,2.2,2.2,81,0.00,,CLR,0.00,VWS V14.01,2013-06-15 02:51:00,
2013-06-14 22:56:00,64.4,58.5,30.09,ENE,68,0.0,0.0,81,0.00,,CLR,0.00,VWS V14.01,2013-06-15 02:56:00,
2013-06-14 23:01:00,64.6,58.3,30.09,ENE,68,0.0,0.0,80,0.00,,CLR,0.00,VWS V14.01,2013-06-15 03:01:00,
2013-06-14 23:06:00,64.8,58.0,30.09,ENE,68,0.0,0.0,79,0.00,,CLR,0.00,VWS V14.01,2013-06-15 03:06:00,
2013-06-14 23:11:00,64.6,58.3,30.09,ENE,68,0.0,0.0,80,0.00,,CLR,0.00,VWS V14.01,2013-06-15 03:11:00,
2013-06-14 23:16:00,64.2,59.6,30.09,ENE,68,0.0,0.0,85,0.00,,CLR,0.00,VWS V14.01,2013-06-15 03:16:00,
2013-06-14 23:21:00,63.9,59.3,30.09,ENE,68,0.0,0.0,85,0.00,,CLR,0.00,VWS V14.01,2013-06-15 03:21:00,
2013-06-14 23:26:00,63.7,59.5,30.09,ENE,68,0.0,0.0,86,0.00,,CLR,0.00,VWS V14.01,2013-06-15 03:26:00,
2013-06-14 23:31:00,63.5,59.7,30.09,ENE,68,0.0,0.0,88,0.00,,CLR,0.00,VWS V14.01,2013-06-15 03:31:00,
2013-06-14 23:36:00,63.5,60.1,30.09,ENE,68,0.0,0.0,89,0.00,,CLR,0.00,VWS V14.01,2013-06-15 03:36:00,
2013-06-14 23:41:00,63.5,60.5,30.09,ENE,68,0.0,0.0,90,0.00,,CLR,0.00,VWS V14.01,2013-06-15 03:41:00,
2013-06-14 23:46:00,63.5,60.9,30.09,ENE,68,0.0,0.0,91,0.00,,CLR,0.00,VWS V14.01,2013-06-15 03:46:00,
2013-06-14 23:51:00,63.5,61.3,30.09,ENE,68,0.0,0.0,92,0.00,,CLR,0.00,VWS V14.01,2013-06-15 03:51:00,
2013-06-14 23:56:00,63.5,61.3,30.09,ENE,68,0.0,0.0,92,0.00,,CLR,0.00,VWS V14.01,2013-06-15 03:56:00,